Weather History for Hatteras, NC

Change the Weather History Date:

Sunday, October 28, 2012

  Actual Average Record
Temperature  
Mean Temperature 64 °F 62 °F  
Max Temperature 67 °F 69 °F 84 °F (1984)
Min Temperature 61 °F 56 °F 32 °F (1979)
Degree Days  
Heating Degree Days 1 4  
Month to date heating degree days 27 59  
Since 1 July heating degree days 27 62  
Cooling Degree Days 0 1  
Month to date cooling degree days 134 94  
Year to date cooling degree days 2090 1686  
Growing Degree Days 14 (Base 50)    
Moisture  
Dew Point 63 °F    
Average Humidity 97    
Maximum Humidity 100    
Minimum Humidity 93    
Precipitation  
Precipitation 4.55 in 0.17 in 4.55 in (2012)
Month to date precipitation 9.30 4.90  
Year to date precipitation 50.03 48.34  
Snow  
Snow 0.00 in - - ()
Month to date snowfall 0.0  
Since 1 July snowfall 0.0  
Snow Depth 0.00 in    
Sea Level Pressure  
Sea Level Pressure 29.32 in    
Wind  
Wind Speed 20 mph (NNE)    
Max Wind Speed 23 mph    
Max Gust Speed 54 mph    
Visibility 2 miles    
Events Rain    
T = Trace of Precipitation, MM = Missing Value Source: NWS Daily Summary

Daily Weather History Graph

Daily Weather History Graph

Search for Another Location

Airport:

Trip Planner

Search our weather history database for the weather conditions in past years. The results will help you decide how hot, cold, wet, or windy it might be!

Date:

Astronomy

Oct. 28, 2012 Rise Set
Actual Time 7:20 AM EDT 6:11 PM EDT
Civil Twilight 6:54 AM EDT 6:37 PM EDT
Nautical Twilight 6:24 AM EDT 7:07 PM EDT
Astronomical Twilight 5:55 AM EDT 7:36 PM EDT
Moon 5:27 PM EDT (10/28) 6:12 AM EDT (10/28)
Length of Visible Light 11h 43m
Length of Day
10h 50m
Waxing Gibbous, 99% of the Moon is Illuminated
Oct 28
Waxing Gibbous
Oct 29
Full
Nov 6
Last Quarter
Nov 13
New
Nov 20
First Quarter

Hourly Weather History & Observations

Time (EDT) Temp. Dew Point Humidity Pressure Visibility Wind Dir Wind Speed Gust Speed Precip Events Conditions
12:00 AM 66.2 °F 64.4 °F 94% 29.43 in 1.8 mi NNE 19.6 mph 35.7 mph 0.08 in Rain Heavy Rain
12:09 AM 66.2 °F 64.4 °F 94% 29.43 in 1.8 mi NE 19.6 mph 38.0 mph 0.17 in Rain Heavy Rain
12:18 AM 66.2 °F 64.4 °F 94% 29.43 in 2.5 mi NNE 20.7 mph 38.0 mph 0.20 in Rain Rain
12:20 AM 66.2 °F 64.4 °F 94% 29.43 in 3.0 mi NNE 18.4 mph 35.7 mph 0.21 in Rain Light Rain
12:29 AM 66.2 °F 64.4 °F 94% 29.42 in 2.5 mi NNE 15.0 mph 29.9 mph 0.23 in Rain Heavy Rain
12:37 AM 66.2 °F 64.4 °F 94% 29.42 in 1.8 mi NNE 21.9 mph 36.8 mph 0.28 in Rain Heavy Rain
12:51 AM 66.9 °F 64.0 °F 90% 29.42 in 1.5 mi NE 18.4 mph 39.1 mph 0.41 in Rain Heavy Rain
1:12 AM 66.2 °F 62.6 °F 88% 29.42 in 1.5 mi NE 17.3 mph 41.4 mph 0.18 in Rain Heavy Rain
1:22 AM 66.2 °F 62.6 °F 88% 29.41 in 2.0 mi NE 26.5 mph 41.4 mph 0.25 in Rain Heavy Rain
1:29 AM 66.2 °F 62.6 °F 88% 29.40 in 1.8 mi NE 17.3 mph 41.4 mph 0.31 in Rain Heavy Rain
1:32 AM 66.2 °F 64.4 °F 94% 29.40 in 2.0 mi NE 18.4 mph 40.3 mph 0.33 in Rain Heavy Rain
1:51 AM 64.0 °F 62.1 °F 93% 29.39 in 6.0 mi NNE 18.4 mph 32.2 mph 0.36 in Rain Light Rain
1:59 AM 64.4 °F 62.6 °F 94% 29.38 in 3.0 mi NNE 21.9 mph 36.8 mph 0.01 in Rain Rain
2:01 AM 66.2 °F 62.6 °F 88% 29.38 in 2.5 mi NNE 23.0 mph 38.0 mph 0.02 in Rain Heavy Rain
2:15 AM 66.2 °F 62.6 °F 88% 29.37 in 3.0 mi NE 20.7 mph 41.4 mph 0.07 in Rain Light Rain
2:24 AM 66.2 °F 64.4 °F 94% 29.36 in 3.0 mi NNE 16.1 mph 39.1 mph 0.08 in Rain Light Rain
2:35 AM 66.2 °F 64.4 °F 94% 29.36 in 2.5 mi NE 18.4 mph 34.5 mph 0.11 in Rain Heavy Rain
2:51 AM 66.9 °F 64.0 °F 90% 29.35 in 2.0 mi NNE 19.6 mph 33.4 mph 0.20 in Rain Rain
3:06 AM 66.2 °F 64.4 °F 94% 29.35 in 1.8 mi NNE 21.9 mph 38.0 mph 0.08 in Rain Heavy Rain
3:20 AM 66.2 °F 64.4 °F 94% 29.35 in 1.2 mi NNE 21.9 mph 38.0 mph 0.24 in Rain Heavy Rain
3:33 AM 66.2 °F 64.4 °F 94% 29.35 in 1.8 mi NE 17.3 mph 34.5 mph 0.38 in Rain Heavy Rain
3:51 AM 64.9 °F 64.0 °F 97% 29.34 in 2.0 mi NNE 21.9 mph 42.6 mph 0.49 in Rain Rain
4:43 AM 64.4 °F 62.6 °F 94% 29.33 in 1.5 mi NNE 19.6 mph 47.2 mph 0.25 in Rain Heavy Rain
4:51 AM 64.0 °F 63.0 °F 96% 29.32 in 1.5 mi NNE 21.9 mph 47.2 mph 0.31 in Rain Heavy Rain
5:10 AM 64.4 °F 62.6 °F 94% 29.32 in 3.0 mi NNE 24.2 mph 46.0 mph 0.09 in Rain Light Rain
5:19 AM 64.4 °F 62.6 °F 94% 29.31 in 2.5 mi NNE 25.3 mph 47.2 mph 0.10 in Rain Rain
5:35 AM 64.4 °F 62.6 °F 94% 29.31 in 2.5 mi NNE 21.9 mph 39.1 mph 0.15 in Rain Rain
5:51 AM 64.9 °F 63.0 °F 93% 29.31 in 1.8 mi NNE 21.9 mph 46.0 mph 0.21 in Rain Heavy Rain
6:07 AM 64.4 °F 64.4 °F 100% 29.31 in 2.5 mi NNE 24.2 mph 47.2 mph 0.10 in Rain Heavy Rain
6:29 AM 64.4 °F 64.4 °F 100% 29.30 in 1.8 mi NNE 24.2 mph 48.3 mph 0.20 in Rain Heavy Rain
6:40 AM 64.4 °F 64.4 °F 100% 29.30 in 2.0 mi NNE 23.0 mph 48.3 mph 0.24 in Rain Heavy Rain
6:51 AM 64.9 °F 64.0 °F 97% 29.31 in 2.5 mi NNE 20.7 mph 42.6 mph 0.28 in Rain Rain
7:02 AM 64.4 °F 62.6 °F 94% 29.30 in 3.0 mi NNE 20.7 mph 39.1 mph 0.02 in Rain Light Rain
7:46 AM 64.4 °F 62.6 °F 94% 29.31 in 2.5 mi NNE 21.9 mph 44.9 mph 0.10 in Rain Rain
7:51 AM 64.9 °F 63.0 °F 93% 29.31 in 2.5 mi NNE 23.0 mph 42.6 mph 0.10 in Rain Rain
8:17 AM 64.4 °F 62.6 °F 94% 29.31 in 1.2 mi NNE 19.6 mph 43.7 mph 0.14 in Rain Heavy Rain
8:34 AM 64.4 °F 62.6 °F 94% 29.31 in 2.0 mi NNE 24.2 mph 44.9 mph 0.22 in Rain Light Rain
8:51 AM 64.0 °F 63.0 °F 96% 29.32 in 3.0 mi NNE 21.9 mph 44.9 mph 0.24 in Rain Light Rain
9:06 AM 64.4 °F 62.6 °F 94% 29.32 in 2.5 mi NNE 24.2 mph 51.8 mph 0.01 in Rain Light Rain
9:32 AM 64.4 °F 62.6 °F 94% 29.32 in 1.8 mi NNE 19.6 mph 39.1 mph 0.08 in Rain Rain
9:48 AM 64.4 °F 62.6 °F 94% 29.31 in 1.2 mi North 23.0 mph 44.9 mph 0.15 in Rain Heavy Rain
9:51 AM 63.0 °F 62.1 °F 97% 29.31 in 1.2 mi North 23.0 mph 41.4 mph 0.16 in Rain Heavy Rain
10:09 AM 62.6 °F 62.6 °F 100% 29.31 in 2.0 mi North 17.3 mph 50.6 mph 0.08 in Rain Rain
10:23 AM 62.6 °F 62.6 °F 100% 29.30 in 1.5 mi North 21.9 mph 47.2 mph 0.10 in Rain Rain
10:47 AM 64.4 °F 62.6 °F 94% 29.30 in 3.0 mi North 18.4 mph 46.0 mph 0.15 in Rain Light Rain
10:51 AM 64.0 °F 62.1 °F 93% 29.30 in 3.0 mi North 23.0 mph 42.6 mph 0.16 in Rain Light Rain
10:57 AM 64.4 °F 62.6 °F 94% 29.30 in 2.5 mi North 20.7 mph 40.3 mph 0.00 in Rain Rain
11:11 AM 64.4 °F 62.6 °F 94% 29.30 in 1.8 mi North 20.7 mph 54.1 mph 0.04 in Rain Rain
11:21 AM 64.4 °F 62.6 °F 94% 29.29 in 1.2 mi North 20.7 mph 42.6 mph 0.08 in Rain Heavy Rain
11:34 AM 64.4 °F 62.6 °F 94% 29.29 in 1.5 mi North 19.6 mph 42.6 mph 0.15 in Rain Rain
11:40 AM 62.6 °F 62.6 °F 100% 29.29 in 2.0 mi North 21.9 mph 40.3 mph 0.16 in Rain Rain
11:49 AM 62.6 °F 62.6 °F 100% 29.29 in 1.2 mi North 20.7 mph 41.4 mph 0.19 in Rain Heavy Rain
11:51 AM 63.0 °F 62.1 °F 97% 29.29 in 1.2 mi North 18.4 mph 41.4 mph 0.20 in Rain Heavy Rain
12:00 PM 62.6 °F 62.6 °F 100% 29.28 in 2.0 mi North 19.6 mph 42.6 mph 0.04 in Rain Light Rain
12:07 PM 62.6 °F 62.6 °F 100% 29.28 in 3.0 mi North 19.6 mph 40.3 mph 0.05 in Rain Light Rain
12:15 PM 62.6 °F 62.6 °F 100% 29.27 in 2.5 mi North 16.1 mph 46.0 mph 0.06 in Rain Light Rain
12:35 PM 62.6 °F 62.6 °F 100% 29.27 in 2.5 mi North 12.7 mph 43.7 mph 0.09 in Rain Rain
12:51 PM 63.0 °F 62.1 °F 97% 29.26 in 2.5 mi North 18.4 mph 42.6 mph 0.11 in Rain Light Rain
1:05 PM 62.6 °F 62.6 °F 100% 29.26 in 2.0 mi North 17.3 mph 42.6 mph 0.03 in Rain Rain
1:13 PM 62.6 °F 60.8 °F 94% 29.26 in 2.5 mi North 16.1 mph 41.4 mph 0.04 in Rain Rain
1:33 PM 62.6 °F 62.6 °F 100% 29.25 in 3.0 mi North 17.3 mph 42.6 mph 0.08 in Rain Light Rain
1:51 PM 63.0 °F 62.1 °F 97% 29.25 in 2.5 mi North 17.3 mph 34.5 mph 0.10 in Rain Light Rain
2:03 PM 62.6 °F 62.6 °F 100% 29.25 in 3.0 mi North 19.6 mph 38.0 mph 0.01 in Rain Light Rain
2:06 PM 62.6 °F 62.6 °F 100% 29.25 in 2.5 mi North 15.0 mph 38.0 mph 0.02 in Rain Light Rain
2:15 PM 62.6 °F 62.6 °F 100% 29.25 in 1.8 mi North 15.0 mph 40.3 mph 0.05 in Rain Rain
2:33 PM 62.6 °F 60.8 °F 94% 29.25 in 1.2 mi North 21.9 mph 41.4 mph 0.11 in Rain Rain
2:40 PM 62.6 °F 62.6 °F 100% 29.25 in 1.5 mi North 12.7 mph 41.4 mph 0.14 in Rain Heavy Rain
2:54 PM 62.6 °F 60.8 °F 94% 29.25 in 3.0 mi North 15.0 mph 36.8 mph 0.00 in Rain Light Rain
3:51 PM 62.1 °F 60.1 °F 93% 29.26 in 3.0 mi North 18.4 mph 32.2 mph 0.05 in Rain Light Rain
5:21 PM 62.6 °F 60.8 °F 94% 29.27 in 3.0 mi North - - 0.08 in Rain Rain
7:37 PM 62.6 °F 60.8 °F 94% 29.27 in 3.0 mi North 15.0 mph 32.2 mph 0.23 in Rain Heavy Rain
7:51 PM 62.1 °F 61.0 °F 96% 29.26 in 3.0 mi North 16.1 mph 40.3 mph 0.28 in Rain Rain
8:51 PM 62.1 °F 60.1 °F 93% 29.27 in 4.0 mi North 16.1 mph 34.5 mph 0.13 in Rain Heavy Rain
9:51 PM 62.1 °F 60.1 °F 93% 29.25 in 4.0 mi North 12.7 mph 32.2 mph 0.22 in Rain Rain